[[{"header":{"parameterUnit":"m.s-1","parameterCategory":1,"la1":30.2991,"la2":30.254,"lo1":-89.0895,"lo2":-89.0444,"dy":0.0017,"dx":0.0017,"nx":28,"ny":28,"refTime":"2023-09-06T09:00:00:Z","depth":0,"parameterNumber":2,"parameterNumberName":"U-component_of_WINDS"},"data":[0,0,0,0,0,0,0,0,0,0,0,0,0,0,0,0,0,0,0,0,0,0,0,0,0,0,0,0,0,0,0,0,0,0,0,0,0,0,0,0,0,0,0,0,0,0,0,0,0,0,0,0,0,0,0,0,0,0,-3.6994,-3.6994,0,-3.7054,-3.7054,-3.7055,-3.6988,-3.6986,-3.6983,-3.6981,-3.7049,-3.7053,-3.7057,0,0,0,0,0,0,0,0,0,0,0,0,0,-3.6831,-3.6834,-3.6994,-3.6994,-3.6995,-3.7054,-3.7054,-3.7055,-3.6989,-3.6985,-3.6982,-3.6979,-3.7047,-3.7052,-3.7057,0,0,0,0,0,0,0,0,0,0,0,0,0,-3.6898,-3.6835,-3.6993,-3.6969,-3.6967,-3.7053,-3.7055,-3.7056,-3.6989,-3.6985,-3.6982,-3.6978,-3.7046,-3.7052,-3.7058,-3.7174,0,0,-3.7077,-3.708,0,0,0,0,0,0,0,0,-3.6894,-3.6904,-3.6972,-3.6971,-3.6969,-3.7009,-3.7022,-3.7095,-3.699,-3.6981,-3.6981,-3.6976,-3.7039,-3.7046,-3.7066,-3.7177,-3.718,-3.7078,-3.7082,-3.7085,-3.7086,0,0,0,0,0,0,0,-3.6889,-3.6901,-3.7017,-3.6973,-3.6971,-3.6958,-3.6963,-3.7036,-3.7031,-3.6982,-3.6977,-3.6985,-3.7038,-3.706,-3.7067,-3.7181,-3.7078,-3.7083,-3.7087,-3.709,-3.7396,-3.74,0,0,0,0,0,0,-3.6886,-3.6897,-3.7016,-3.7019,-3.6921,-3.6964,-3.697,-3.7,-3.703,-3.7031,-3.6988,-3.6981,-3.7051,-3.706,-3.7069,-3.7209,-3.7084,-3.709,-3.7094,-3.7392,-3.7397,-3.7402,0,0,0,0,0,0,-3.6883,-3.6897,-3.7013,-3.6957,-3.6971,-3.6971,-3.7006,-3.7004,-3.7025,-3.7035,-3.7034,-3.701,-3.7048,-3.706,-3.7149,-3.721,-3.7093,-3.7099,-3.7386,-3.7393,-3.7399,-3.7488,0,0,0,0,0,0,-3.6879,-3.6897,-3.6938,-3.6958,-3.6974,-3.7089,-3.7009,-3.7008,-3.7036,-3.7028,-3.7056,-3.7057,-3.7046,-3.714,-3.7155,-3.7217,-3.7104,-3.7381,-3.7389,-3.7397,-3.748,-3.7497,-3.7512,0,0,0,0,0,-3.6873,-3.6961,-3.694,-3.6955,-3.7025,-3.7093,-3.7102,-3.7086,-3.7041,-3.7084,-3.7091,-3.7056,-3.7202,-3.715,-3.7166,-3.7231,-3.7377,-3.7387,-3.7396,-3.7473,-3.7494,-3.7511,0,0,0,0,0,0,-3.6949,-3.6963,-3.694,-3.7037,-3.7064,-3.7081,-3.7135,-3.7108,-3.715,-3.7141,-3.7122,-3.7129,-3.7224,-3.7236,-3.7178,-3.7347,-3.7282,-3.7296,-3.7335,-3.7355,-3.737,-3.7365,-3.7109,0,0,0,0,0,-3.6976,-3.7027,-3.7038,-3.7123,-3.7138,-3.7135,-3.7163,-3.7149,-3.7177,-3.7189,-3.7202,-3.7233,-3.7286,-3.7321,-3.737,-3.7482,-3.749,-3.7536,-3.7552,-3.7565,-3.7576,-3.7641,-3.7662,-3.7434,-3.7434,-3.7433,0,0,-3.7034,-3.7049,-3.7082,-3.7139,-3.7158,-3.7215,-3.7144,-3.7206,-3.7249,-3.7199,-3.7283,-3.7295,-3.7329,-3.7431,-3.7476,-3.7444,-3.7642,-3.7577,-3.7587,-3.7592,-3.7653,-3.7675,-3.7694,-3.744,-3.7439,-3.7438,0,0,-3.7169,-3.7184,-3.7257,-3.7278,-3.7309,-3.7307,-3.7325,-3.7348,-3.7353,-3.7437,-3.7402,-3.7455,-3.7545,-3.7572,-3.7597,-3.7749,-3.7719,-3.7766,-3.7849,-3.7912,-3.793,-3.7945,-3.8002,-3.8022,-3.7778,-3.7778,-3.7778,0,-3.7237,-3.7318,-3.7299,-3.7364,-3.7392,-3.7349,-3.7425,-3.7448,-3.7494,-3.7516,-3.7479,-3.7595,-3.7614,-3.7724,-3.7761,-3.7783,-3.7805,-3.7761,-3.7928,-3.7944,-3.7959,-3.8012,-3.8033,-3.7783,-3.7783,-3.7782,-3.7782,0,-3.7403,-3.746,-3.7516,-3.7561,-3.7595,-3.7666,-3.7661,-3.7699,-3.7684,-3.7687,-3.7777,-3.7799,-3.7854,-3.7879,-3.7864,-3.7988,-3.7968,-3.793,-3.7865,-3.7986,-3.8036,-3.8056,-3.7791,-3.7789,-3.7788,-3.7786,0,0,-3.7582,-3.7618,-3.7639,-3.766,-3.7693,-3.7739,-3.7811,-3.7863,-3.7897,-3.7932,-3.7994,-3.8074,-3.8041,-3.807,-3.8059,-3.8114,-3.8236,-3.807,-3.8071,-3.8102,-3.8378,-3.8406,-3.8429,-3.8218,-3.8222,-3.8225,-3.8375,0,-3.7718,-3.7839,-3.7826,-3.7942,-3.7998,-3.7961,-3.8024,-3.8053,-3.806,-3.8111,-3.8119,-3.8177,-3.8127,-3.8145,-3.8198,-3.821,-3.8292,-3.8199,-3.8278,-3.8281,-3.827,-3.8455,-3.8484,-3.8625,-3.8395,-3.8398,-3.84,0,-3.7892,-3.7932,-3.8054,-3.8082,-3.8105,-3.8161,-3.8211,-3.8259,-3.8294,-3.8295,-3.833,-3.8311,-3.8388,-3.8322,-3.8429,-3.8366,-3.8399,-3.841,-3.8415,-3.8422,-3.8347,-3.8468,-3.8669,-3.8691,-3.8431,-3.8428,-3.8426,0,-3.8013,-3.8098,-3.8183,-3.8202,-3.8237,-3.8278,-3.8295,-3.8326,-3.836,-3.8405,-3.8427,-3.8481,-3.8511,-3.8555,-3.8552,-3.8504,-3.8663,-3.8596,-3.8669,-3.8669,-3.8702,-3.87,-3.8913,-3.8723,-3.8723,-3.8722,-3.8722,0,-3.8166,-3.8242,-3.8238,-3.829,-3.8376,-3.8364,-3.8451,-3.8464,-3.8492,-3.8549,-3.8522,-3.8577,-3.857,-3.8627,-3.8626,-3.8717,-3.873,-3.8736,-3.8735,-3.8739,-3.8738,-3.8759,-3.8749,-3.8728,-3.8727,-3.8726,-3.8725,0,-3.8314,-3.8314,-3.8404,-3.8431,-3.844,-3.8502,-3.8527,-3.8579,-3.8585,-3.8658,-3.8674,-3.8685,-3.875,-3.8753,-3.8828,-3.8828,-3.894,-3.8927,-3.8927,-3.8925,-3.8998,-3.8992,-3.9232,-3.9264,-3.9053,-3.9055,-3.9057,0,-3.8411,-3.8469,-3.8503,-3.8538,-3.8557,-3.8615,-3.865,-3.8642,-3.868,-3.8727,-3.8774,-3.8837,-3.8886,-3.8994,-3.901,-3.9069,-3.9059,-3.9139,-3.9068,-3.9071,-3.9062,-3.9059,-3.9066,-3.9153,-3.9155,-3.9157,-3.9159,0,-3.8585,-3.8583,-3.8632,-3.8684,-3.8727,-3.8767,-3.8805,-3.8837,-3.8834,-3.8879,-3.8945,-3.8984,-3.9062,-3.9126,-3.9185,-3.9206,-3.9184,-3.9182,-3.9202,-3.9206,-3.9204,-3.9208,-3.8966,-3.9176,-3.9174,-3.9173,-3.9172,-3.9171,-3.8711,-3.8762,-3.8795,-3.8853,-3.8881,-3.8918,-3.8969,-3.8982,-3.9036,-3.9098,-3.9091,-3.9166,-3.9205,-3.9281,-3.9308,-3.9368,-3.9341,-3.937,-3.9377,-3.9385,-3.9393,-3.9195,-3.9379,-3.9379,-3.9378,-3.9378,-3.9377,0,-3.8884,-3.8904,-3.8958,-3.9012,-3.9059,-3.9033,-3.9075,-3.9117,-3.9182,-3.9219,-3.9269,-3.9348,-3.9412,-3.9435,-3.9498,-3.9542,-3.9534,-3.9559,-3.9556,-3.9562,-3.9413,-3.939,-3.9565,-3.9565,-3.9565,-3.9565,-3.9565,-3.9565,-3.898,-3.9066,-3.9069,-3.9171,-3.9192,-3.9263,-3.929,-3.9326,-3.9356,-3.9444,-3.9496,-3.9511,-3.9544,-3.961,-3.9668,-3.9674,-3.9699,-3.9729,-3.9731,-3.9591,-3.9572,-3.9554,-3.9532,-3.9734,-3.9735,-3.9874,-3.9876,-3.9877]},{"header":{"parameterUnit":"m.s-1","parameterCategory":1,"la1":30.2991,"la2":30.254,"lo1":-89.0895,"lo2":-89.0444,"dy":0.0017,"dx":0.0017,"nx":28,"ny":28,"refTime":"2023-09-06T09:00:00:Z","depth":0,"parameterNumber":3,"parameterNumberName":"V-component_of_WINDS"},"data":[0,0,0,0,0,0,0,0,0,0,0,0,0,0,0,0,0,0,0,0,0,0,0,0,0,0,0,0,0,0,0,0,0,0,0,0,0,0,0,0,0,0,0,0,0,0,0,0,0,0,0,0,0,0,0,0,0,0,2.2684,2.2685,0,2.2802,2.2803,2.2805,2.2924,2.2925,2.2927,2.2928,2.3045,2.3047,2.3048,0,0,0,0,0,0,0,0,0,0,0,0,0,2.2557,2.2559,2.2684,2.2685,2.2687,2.2802,2.2803,2.2805,2.2923,2.2925,2.2927,2.2929,2.3045,2.3047,2.3048,0,0,0,0,0,0,0,0,0,0,0,0,0,2.2637,2.256,2.2683,2.276,2.2768,2.2802,2.2804,2.2806,2.2923,2.2925,2.2928,2.293,2.3044,2.3046,2.3049,2.3016,0,0,2.3056,2.3057,0,0,0,0,0,0,0,0,2.2633,2.2642,2.2747,2.2754,2.2764,2.2851,2.2802,2.2876,2.2922,2.2864,2.2928,2.2931,2.2978,2.2986,2.3003,2.3021,2.3026,2.3056,2.3058,2.3059,2.306,0,0,0,0,0,0,0,2.2627,2.2637,2.273,2.2748,2.2758,2.2787,2.2801,2.2816,2.2906,2.2869,2.2878,2.2891,2.2983,2.3,2.3007,2.3028,2.3056,2.3058,2.306,2.3061,2.3026,2.3023,0,0,0,0,0,0,2.261,2.2632,2.2727,2.2734,2.2703,2.2787,2.2803,2.282,2.2906,2.2922,2.2889,2.2896,2.2995,2.3004,2.3011,2.2978,2.3059,2.3061,2.3063,2.3028,2.3025,2.3023,0,0,0,0,0,0,2.2607,2.2618,2.2722,2.2686,2.2701,2.2787,2.2805,2.2821,2.2839,2.2921,2.2937,2.289,2.2997,2.3008,2.3014,2.2984,2.3062,2.3064,2.3031,2.3027,2.3024,2.2911,0,0,0,0,0,0,2.2603,2.2616,2.2604,2.2684,2.2703,2.2723,2.2803,2.2822,2.2843,2.2854,2.2926,2.2941,2.3,2.301,2.3016,2.2988,2.3066,2.3034,2.3029,2.3025,2.2918,2.2904,2.2892,0,0,0,0,0,2.2598,2.2567,2.2603,2.2614,2.269,2.2721,2.2731,2.2801,2.284,2.2829,2.2882,2.2938,2.2987,2.3009,2.3018,2.299,2.3036,2.303,2.3025,2.2923,2.2906,2.2892,0,0,0,0,0,0,2.2478,2.2578,2.262,2.2614,2.2658,2.2741,2.2729,2.2781,2.2814,2.2823,2.2908,2.2923,2.2919,2.2956,2.298,2.2963,2.3019,2.3015,2.2939,2.2924,2.2911,2.2901,2.3068,0,0,0,0,0,2.2452,2.247,2.2556,2.2542,2.2562,2.2642,2.2658,2.2708,2.2757,2.2776,2.283,2.2874,2.29,2.2914,2.2942,2.2925,2.2942,2.291,2.2897,2.2886,2.2881,2.2875,2.2861,2.3005,2.3005,2.3005,0,0,2.2396,2.2453,2.2458,2.2519,2.256,2.2575,2.2656,2.2669,2.2681,2.2778,2.2787,2.2828,2.2883,2.2878,2.2878,2.2908,2.2846,2.2879,2.287,2.2871,2.2868,2.2854,2.2842,2.3001,2.3002,2.3002,0,0,2.2301,2.2347,2.2341,2.238,2.2441,2.2495,2.2493,2.2569,2.26,2.2612,2.2685,2.27,2.2742,2.2779,2.2803,2.2725,2.2778,2.2732,2.2664,2.2657,2.2646,2.2636,2.2607,2.2596,2.2727,2.2727,2.2727,0,2.2223,2.2251,2.233,2.2339,2.2364,2.2454,2.2448,2.2482,2.2548,2.2563,2.2596,2.2652,2.2695,2.27,2.2681,2.2698,2.2698,2.2723,2.2641,2.2632,2.2624,2.2598,2.2587,2.2721,2.2722,2.2722,2.2723,0,2.2152,2.217,2.2158,2.2221,2.2245,2.2246,2.2324,2.2339,2.2388,2.2438,2.2448,2.2505,2.2545,2.2551,2.2598,2.2562,2.2579,2.2626,2.2683,2.2603,2.258,2.2571,2.2712,2.2714,2.2716,2.2718,0,0,2.1982,2.2092,2.2086,2.2116,2.2192,2.2207,2.2212,2.2255,2.2265,2.2308,2.2314,2.2349,2.2394,2.2421,2.2474,2.2468,2.2402,2.2516,2.2518,2.2491,2.2365,2.2328,2.2315,2.2439,2.2437,2.2436,2.236,0,2.19,2.1916,2.1988,2.1983,2.2,2.2088,2.2093,2.214,2.2187,2.2208,2.2261,2.2283,2.2341,2.2358,2.2356,2.241,2.2377,2.2417,2.2444,2.2444,2.2425,2.2303,2.2263,2.2188,2.2351,2.235,2.2349,0,2.1804,2.1844,2.184,2.1917,2.1927,2.193,2.1975,2.1995,2.205,2.2085,2.2116,2.2176,2.2187,2.2243,2.2258,2.2283,2.2299,2.2328,2.2327,2.233,2.2389,2.2301,2.2166,2.2154,2.2336,2.2337,2.2338,0,2.1679,2.1732,2.1737,2.176,2.185,2.185,2.1887,2.1945,2.1966,2.2005,2.202,2.2059,2.208,2.2109,2.2178,2.2213,2.2185,2.2247,2.2213,2.2211,2.2201,2.22,2.2065,2.2214,2.2215,2.2215,2.2215,0,2.1578,2.1572,2.1682,2.1684,2.1681,2.1765,2.1758,2.1804,2.1855,2.1867,2.1946,2.1956,2.2048,2.2068,2.2123,2.2127,2.2136,2.2164,2.2178,2.2155,2.2151,2.2165,2.2171,2.2212,2.2213,2.2213,2.2214,0,2.1436,2.151,2.1521,2.1606,2.1627,2.162,2.1693,2.1699,2.1753,2.1767,2.1776,2.1859,2.1887,2.1961,2.2007,2.2044,2.2032,2.206,2.2014,2.2022,2.1984,2.1986,2.1851,2.1837,2.1996,2.1995,2.1993,0,2.1365,2.1363,2.1449,2.1464,2.1498,2.1521,2.1544,2.1627,2.1647,2.1711,2.1708,2.1744,2.1776,2.1817,2.1881,2.1918,2.1946,2.1896,2.1951,2.1929,2.1943,2.1941,2.1941,2.1882,2.188,2.1879,2.1877,0,2.1232,2.1269,2.1299,2.1343,2.1368,2.1406,2.1448,2.1455,2.1549,2.1567,2.1598,2.1623,2.1673,2.1706,2.1753,2.1791,2.1849,2.186,2.1854,2.183,2.1803,2.1815,2.1978,2.1862,2.1863,2.1865,2.1865,2.1866,2.1123,2.1125,2.1186,2.1218,2.1259,2.1297,2.1306,2.1362,2.139,2.1437,2.1485,2.1511,2.1567,2.1637,2.1671,2.1692,2.1722,2.1713,2.1711,2.1707,2.1696,2.1801,2.1701,2.1701,2.1702,2.1702,2.1703,0,2.0992,2.1037,2.1065,2.1122,2.1147,2.1203,2.1252,2.1269,2.1291,2.1339,2.137,2.1406,2.144,2.1508,2.1547,2.1551,2.1578,2.1558,2.1557,2.1565,2.1667,2.1668,2.1535,2.1535,2.1535,2.1535,2.1535,2.1535,2.0927,2.0934,2.0978,2.1007,2.1052,2.1078,2.1102,2.1137,2.1177,2.1213,2.1242,2.1287,2.1344,2.1388,2.1422,2.1441,2.1451,2.1421,2.1449,2.1542,2.1558,2.1573,2.1574,2.1423,2.1423,2.1345,2.1344,2.1343]}]]